Wind_Speed
15 11 11 13 13 15 17 17 16 14 10 10 12 11 12 12 10 12 10 5 4 8 10 12 13 12 10 8 6 9 12 13 14 15 17 20 21 23 24 24 25 25 24 25 27 30 30 29 29 28 27 28 30 31 33 37 38 37 37 35 33 30 26 22 20 19 20 21 20 20 20 19 19 19 21 22 22 20 19 20 20 19 18 18 17 15
15 13 14 17 16 15 17 18 17 16 13 10 10 10 11 13 11 12 9 5 5 7 10 11 13 13 12 10 9 10 12 13 14 16 18 21 22 23 25 25 24 22 21 23 26 29 30 30 29 29 28 29 31 33 36 39 40 39 38 37 35 33 30 26 23 23 25 27 26 24 23 22 20 22 24 23 23 21 20 21 22 19 19 18 17 16
13 14 17 18 16 15 15 16 18 18 15 11 10 9 10 11 11 12 10 7 6 6 8 11 13 14 13 13 11 10 13 14 16 19 19 22 23 23 24 25 25 23 22 25 27 29 30 30 30 30 30 31 32 34 37 39 41 40 39 39 38 36 34 31 29 28 29 30 30 27 25 24 21 21 24 23 22 22 21 22 20 19 19 18 17 16
12 13 19 18 16 17 16 15 17 16 13 12 11 10 11 11 10 10 9 9 9 8 9 12 11 12 12 12 12 12 16 15 16 19 20 21 22 23 23 24 24 25 25 26 27 29 30 31 31 32 32 32 31 32 36 39 41 43 42 41 40 39 37 35 33 32 31 30 31 29 28 26 22 20 22 24 24 23 23 22 20 19 19 18 18 17
13 10 15 20 18 18 17 15 16 13 11 14 15 14 12 12 13 10 6 6 6 8 10 11 10 10 12 14 13 13 16 16 16 18 19 20 20 21 21 22 24 26 27 27 28 29 31 32 32 33 33 34 33 34 35 37 41 43 43 42 41 40 39 37 36 34 32 31 30 30 29 28 25 23 23 24 25 24 23 22 21 20 20 19 18 18
16 10 11 19 20 18 18 16 17 14 10 13 17 18 16 13 13 12 8 6 6 8 10 9 10 10 11 16 15 10 11 13 14 16 18 19 19 20 21 22 24 26 27 28 29 30 31 32 32 32 34 35 35 36 36 37 39 41 42 42 42 42 40 38 37 36 35 33 33 32 31 29 29 28 27 27 27 26 24 23 22 21 21 20 19 19
13 14 12 16 18 19 19 16 17 17 11 11 13 16 18 16 14 12 11 9 8 8 7 7 8 9 10 13 12 8 10 12 13 13 16 19 20 20 21 23 24 25 26 27 28 29 30 32 33 34 36 37 37 38 38 37 38 40 41 42 42 41 41 40 37 36 37 36 35 33 32 32 31 31 30 29 27 26 25 23 22 22 21 20 19 19
13 17 15 17 18 16 17 15 16 18 12 10 9 10 15 18 17 14 11 10 9 10 8 8 9 10 10 11 10 9 11 12 13 13 14 17 20 21 21 23 24 25 27 27 28 30 31 33 35 37 39 41 38 37 39 39 39 40 41 41 41 40 40 39 36 36 37 37 35 34 34 33 33 32 31 29 27 26 25 23 22 22 21 20 20 20
15 19 18 19 18 13 13 14 16 18 14 11 8 6 10 14 16 15 12 10 9 10 11 11 12 10 10 12 11 12 14 13 14 15 15 17 21 21 22 23 25 26 27 29 30 31 33 34 36 37 40 41 38 37 40 41 40 41 41 40 39 39 39 39 38 37 38 37 36 35 35 35 34 33 32 30 29 27 25 24 23 22 22 21 20 20
13 19 20 18 15 12 13 14 16 18 15 12 8 5 8 10 12 13 11 10 10 11 13 13 14 11 11 12 11 12 14 14 13 13 14 18 22 22 23 24 25 26 28 29 30 32 34 34 35 35 36 38 39 39 40 41 39 40 41 40 39 40 40 40 40 39 38 38 37 36 36 36 35 34 33 32 31 29 27 25 24 23 24 22 21 21
10 14 18 16 14 14 12 12 15 17 16 13 10 8 8 8 9 10 9 8 9 12 14 16 16 14 12 12 11 11 12 12 13 13 13 17 22 24 24 24 25 26 28 29 30 30 32 33 32 32 33 35 38 39 40 41 41 41 42 41 41 41 41 41 40 40 39 39 37 37 37 36 36 35 34 34 33 31 29 27 26 25 25 24 23 22
13 11 13 15 18 17 13 12 13 15 16 13 9 9 8 7 7 7 7 8 10 11 11 15 18 16 14 12 10 11 14 15 14 13 13 15 20 24 24 24 25 27 28 28 29 29 30 31 32 32 33 34 36 38 40 42 43 43 43 43 43 43 42 42 41 40 40 39 38 38 37 37 37 36 36 35 34 32 30 28 27 27 27 25 24 24
16 13 11 15 20 20 14 12 11 12 14 13 10 10 9 7 7 7 8 9 10 11 8 11 15 15 16 13 10 11 13 14 14 13 14 14 18 23 25 24 25 26 27 28 29 29 30 32 34 35 36 36 37 39 41 43 43 45 45 45 45 44 44 42 41 40 40 40 40 39 38 38 38 37 37 36 35 34 32 30 29 28 28 28 26 26
13 13 16 16 15 20 18 12 10 11 12 14 11 10 10 8 8 9 9 9 9 10 9 9 9 11 13 12 14 17 15 13 13 13 14 14 16 20 24 25 24 25 27 28 29 30 31 34 36 38 39 40 41 42 42 43 44 45 47 47 47 46 45 44 43 43 42 42 42 40 40 40 39 38 38 37 36 35 34 32 31 30 29 29 28 27
14 12 17 18 12 17 22 15 12 11 11 14 12 11 10 8 8 7 7 9 9 8 10 11 8 9 8 3 5 13 17 17 17 16 16 16 17 19 21 23 23 24 27 28 30 31 33 35 37 38 39 42 45 44 43 44 45 46 48 49 49 48 47 47 45 44 44 44 43 42 41 41 40 40 39 39 37 36 35 34 33 32 31 30 29 27
17 11 13 20 15 16 21 18 15 13 10 12 12 11 11 10 8 6 5 7 6 6 8 10 8 6 4 1 1 3 9 15 17 18 18 19 20 20 20 22 23 24 27 28 30 32 34 35 36 38 40 42 45 45 44 44 45 47 48 49 50 49 49 48 47 46 46 45 44 43 43 43 41 41 40 40 39 37 37 36 34 33 32 31 29 28
13 10 11 21 19 18 21 20 18 15 9 9 12 12 12 11 10 8 6 5 5 7 7 8 10 8 6 7 8 9 9 11 13 13 14 16 18 20 20 21 23 24 26 29 31 33 34 34 35 38 40 41 44 46 46 46 45 46 47 48 49 49 50 50 49 48 47 46 46 44 44 44 42 42 42 40 38 37 36 36 35 33 33 32 31 30
9 7 11 19 21 20 22 22 20 19 13 8 10 13 11 11 10 8 7 6 7 9 7 10 13 11 8 7 8 14 16 15 15 15 15 15 16 18 20 21 23 25 26 29 31 31 32 34 36 38 40 42 45 48 47 46 45 45 46 47 48 49 50 50 50 49 48 48 47 46 45 45 43 43 42 39 38 37 36 35 34 33 33 32 32 32
8 7 9 16 20 18 19 19 16 20 21 12 8 11 11 10 10 8 7 8 9 9 8 11 14 11 10 7 5 10 15 16 16 16 16 16 16 18 21 22 24 25 25 26 28 29 30 34 37 39 40 43 46 50 49 47 46 45 45 45 47 49 49 49 49 49 49 49 49 48 47 46 45 45 43 40 39 38 37 36 35 33 33 32 32 32
6 7 6 13 18 16 15 14 12 15 19 15 10 11 11 8 8 9 8 7 8 8 8 9 11 9 8 10 9 9 9 10 13 13 14 16 17 20 22 22 24 24 24 25 27 29 32 34 36 38 39 40 42 45 46 46 47 47 45 45 46 47 48 48 48 48 49 49 49 48 48 48 48 46 44 42 40 40 39 38 37 35 34 32 32 32
6 8 5 10 16 16 12 12 14 14 15 14 12 12 12 9 6 7 9 8 8 8 7 7 8 5 2 5 11 12 10 9 10 10 11 13 17 20 21 22 23 24 25 27 27 29 32 33 34 35 35 35 35 37 38 41 44 45 45 46 46 45 46 47 47 48 49 49 49 49 49 49 48 46 45 43 42 42 40 39 38 37 35 34 33 32
5 7 8 8 11 13 11 13 17 17 16 15 12 12 12 11 8 8 9 10 9 8 7 7 7 3 3 3 5 8 9 10 11 12 11 11 15 17 18 19 20 22 24 26 26 26 27 28 29 30 30 31 32 34 36 39 41 42 44 46 46 46 46 46 47 48 48 49 49 49 49 48 48 46 45 44 44 43 41 40 39 38 37 36 35 33
2 5 8 8 8 10 12 15 17 19 19 17 14 13 13 12 11 9 8 8 9 10 9 8 8 3 4 4 2 3 6 8 10 12 12 12 13 13 14 15 14 15 16 17 18 19 20 21 24 26 28 31 33 35 36 37 40 43 46 46 45 47 47 46 47 48 48 49 49 48 48 48 48 47 46 46 45 44 42 41 40 39 38 37 36 35
2 6 8 8 7 7 9 12 15 18 19 17 15 15 14 14 13 10 8 7 7 10 9 8 9 5 4 4 3 4 7 8 8 10 12 12 11 10 9 8 9 10 11 13 14 16 17 18 21 25 29 33 35 36 35 36 39 43 46 46 47 49 49 48 47 47 48 48 48 48 48 48 48 48 47 47 47 46 44 42 42 40 39 38 38 38
4 8 9 9 7 8 8 10 13 17 16 12 13 17 17 18 18 14 11 8 7 10 12 9 8 4 5 5 4 4 6 6 6 6 8 9 10 8 5 3 6 8 10 13 15 16 18 19 22 26 30 33 35 36 36 37 38 39 43 47 49 50 49 48 48 48 48 47 46 47 48 47 47 47 47 47 47 46 45 44 44 43 41 40 40 40
4 6 10 11 11 11 11 9 8 11 13 11 12 18 20 21 21 16 11 10 9 10 12 10 7 3 5 5 6 6 6 6 6 5 5 6 7 6 4 3 4 6 9 11 13 15 17 20 22 25 28 32 34 35 37 39 38 37 39 43 46 45 46 48 48 49 49 48 47 48 48 47 46 46 45 45 45 45 44 44 44 44 43 41 40 41
4 4 7 7 6 5 3 1 3 2 10 16 17 19 19 20 22 16 11 10 9 9 11 11 10 7 5 7 7 7 7 5 4 4 4 3 3 3 3 3 4 6 8 9 10 12 14 17 20 23 25 29 32 33 35 38 39 37 37 40 41 40 41 46 49 49 50 50 49 50 49 48 47 45 45 44 44 43 43 42 43 44 43 41 40 41
4 5 5 4 3 2 3 4 6 3 6 13 16 19 18 18 21 20 15 12 10 9 10 10 12 13 8 6 7 7 6 4 3 4 3 1 5 8 5 3 5 6 6 6 7 9 11 14 18 21 24 27 29 31 33 35 37 39 40 41 40 38 38 42 47 49 50 50 50 51 50 49 47 46 46 46 45 44 44 43 43 43 43 42 41 40
4 4 3 4 4 3 3 3 2 1 2 4 8 12 15 16 19 19 18 16 14 11 9 8 12 14 12 10 8 6 5 5 5 7 7 7 9 10 8 8 7 5 6 6 6 5 7 10 14 17 21 25 27 30 32 34 35 39 42 43 43 40 38 41 46 49 50 51 51 51 50 49 47 47 47 47 47 46 45 45 45 44 44 44 43 41
4 0 2 3 6 4 4 3 2 2 3 5 7 9 10 13 15 15 16 17 18 16 14 12 13 13 12 13 13 12 11 12 12 13 16 18 18 17 14 12 10 7 5 5 5 6 9 10 11 12 15 20 25 29 32 34 36 38 41 43 44 43 41 41 45 49 50 51 51 51 51 49 47 46 47 48 48 48 46 46 46 46 46 45 44 43
4 1 2 4 5 5 5 5 4 4 5 7 10 11 12 13 13 13 13 14 15 15 16 16 15 13 11 10 12 15 16 15 14 14 17 20 22 23 21 18 15 13 13 10 6 8 15 16 14 13 12 15 20 25 30 34 36 38 38 40 43 46 44 42 44 48 50 50 51 51 51 49 47 47 47 47 48 47 47 46 46 46 46 46 45 44
5 2 2 3 5 5 5 6 7 6 7 11 13 14 15 15 14 13 12 13 13 13 15 15 13 10 8 9 11 12 13 13 12 14 17 18 21 22 22 22 21 19 19 18 15 17 22 22 18 18 18 17 17 20 26 31 35 37 38 40 42 42 41 42 44 48 49 49 49 50 49 48 47 47 46 47 47 47 46 46 46 47 47 47 46 45
4 4 2 2 5 4 5 4 5 5 8 12 13 15 17 16 15 14 14 14 14 13 13 13 10 8 8 10 10 10 11 13 13 15 17 18 19 20 21 23 24 23 24 23 21 24 27 26 22 21 22 21 18 18 21 25 31 35 37 38 39 38 38 42 46 48 48 47 48 47 47 46 46 46 46 47 46 46 46 46 46 47 47 47 46 45
4 4 3 2 4 4 3 1 3 7 9 6 3 8 15 17 18 17 16 16 17 14 13 12 10 9 9 9 10 10 11 13 15 17 18 18 19 20 22 23 23 24 25 23 22 26 29 29 27 24 23 23 20 17 19 22 26 31 34 36 38 39 40 42 45 47 47 47 46 45 44 44 45 45 46 46 46 46 47 46 46 47 47 47 47 47
4 4 4 3 4 5 3 2 6 9 6 1 4 3 4 8 13 14 14 15 15 15 16 16 15 13 11 10 10 11 12 14 17 18 19 18 18 18 20 22 22 23 23 22 24 29 32 31 28 25 24 24 20 17 19 21 23 27 32 34 36 39 41 42 43 45 45 45 45 43 43 43 43 44 45 46 47 47 47 47 46 47 47 48 48 48
6 5 4 4 5 5 5 6 8 4 2 1 2 3 3 5 6 8 12 15 16 15 15 14 14 15 15 14 16 18 18 19 19 18 18 19 19 20 22 22 21 21 20 20 23 28 31 30 27 25 24 23 20 17 19 21 22 25 29 32 34 37 39 40 42 42 43 43 43 43 43 43 43 43 44 46 46 47 47 46 46 46 46 46 47 47
9 6 5 5 6 6 6 8 7 4 4 5 5 3 3 3 2 2 7 9 8 6 4 4 7 10 11 12 15 16 16 15 14 14 18 20 20 21 22 21 19 20 21 23 25 27 28 28 26 24 23 22 20 18 18 20 21 23 28 31 33 35 38 40 40 41 42 42 42 42 43 44 44 44 44 45 45 46 45 44 44 44 44 45 46 47
11 8 6 6 6 6 6 7 8 8 8 7 6 5 5 3 3 2 4 3 5 6 5 3 4 7 8 8 9 9 7 7 9 11 17 21 20 20 19 18 19 22 24 26 26 24 25 25 23 22 21 19 18 17 18 19 19 22 27 30 32 33 36 39 40 40 42 42 42 42 42 42 42 41 41 42 42 42 42 42 43 44 44 45 45 47
14 10 7 7 7 7 8 8 8 8 4 2 5 7 6 3 2 2 5 5 5 9 6 3 3 6 6 6 7 6 5 7 8 8 12 16 15 14 13 13 16 19 22 23 22 20 21 22 19 18 17 16 16 16 16 16 17 20 25 28 29 29 31 35 37 38 40 40 40 40 39 38 38 38 40 40 40 41 42 41 42 42 43 44 44 45
14 10 8 9 9 8 9 8 7 6 4 2 4 6 6 3 1 4 7 4 5 8 6 4 5 6 7 8 7 5 5 7 6 6 10 8 4 6 9 12 16 18 17 17 18 17 18 17 14 14 15 15 15 14 14 14 15 19 21 22 25 27 28 31 33 34 34 35 36 36 35 35 36 38 39 39 39 40 40 40 42 42 42 43 43 43
11 9 9 10 10 9 10 9 7 5 5 4 4 4 4 2 3 7 5 2 3 4 4 3 5 7 7 9 8 5 6 8 10 12 12 8 3 4 8 13 16 16 15 15 15 13 12 11 12 13 13 13 13 13 14 14 15 16 17 17 20 23 25 27 29 30 30 31 33 33 33 35 37 37 38 38 39 39 39 40 42 43 43 42 41 41
10 9 9 9 9 9 9 9 8 6 4 4 9 9 5 5 4 2 1 2 1 3 3 2 4 5 5 8 9 9 11 14 16 15 12 7 4 4 8 10 10 10 10 11 10 9 8 9 11 11 11 12 12 12 12 13 14 15 15 14 15 17 20 22 25 27 28 29 31 32 33 35 36 36 37 37 38 38 39 40 41 41 41 41 40 40
6 7 9 10 9 8 8 9 9 7 1 3 6 8 7 6 4 5 3 1 1 5 5 3 3 3 5 9 11 12 15 16 15 13 10 7 4 3 6 8 7 7 6 3 2 3 4 6 9 11 12 13 13 12 12 12 13 14 14 13 14 16 18 20 22 23 24 25 27 29 31 31 33 34 34 34 34 35 36 37 38 39 40 39 37 35
5 6 6 7 7 6 9 9 3 2 5 9 8 4 4 8 10 11 8 5 4 5 5 6 5 4 5 9 12 13 14 14 13 11 11 10 5 2 4 6 5 4 3 1 1 1 1 1 4 8 12 14 14 14 14 14 15 16 16 15 16 17 18 19 20 20 19 20 22 23 25 27 28 29 29 29 31 32 33 35 35 36 35 33 32 30
4 2 2 4 3 4 7 6 7 11 13 11 9 9 11 14 12 10 10 9 7 5 5 6 6 5 6 9 12 13 13 13 12 11 12 11 6 4 4 4 3 2 2 2 2 3 3 3 4 5 8 12 15 16 16 16 16 16 16 16 15 15 16 16 16 16 16 16 17 18 19 21 23 24 24 25 26 28 30 31 29 28 26 23 24 26
2 0 2 3 5 7 10 12 13 16 17 14 12 13 15 15 12 10 10 10 8 7 6 6 6 6 6 7 9 11 11 11 10 10 10 9 7 7 6 5 4 4 3 3 3 4 4 4 5 6 7 10 13 15 16 16 15 15 14 14 14 14 14 13 13 14 14 14 14 15 16 16 17 18 19 20 21 22 22 22 22 22 21 20 21 24
6 4 4 5 7 7 8 9 11 14 17 18 16 14 15 15 14 12 11 10 9 8 7 6 5 5 5 4 5 6 7 7 8 8 7 6 7 8 7 6 5 4 4 4 4 4 5 4 5 6 8 10 11 13 14 14 14 13 12 12 11 12 12 10 9 10 10 10 10 11 12 13 13 14 14 15 16 16 16 16 17 19 21 21 22 24
4 2 4 7 9 9 9 10 15 20 23 24 21 17 14 14 15 14 12 11 10 9 7 6 4 4 3 2 2 2 3 4 6 7 6 6 7 7 6 6 5 4 4 3 4 5 5 5 5 6 7 8 9 11 13 13 13 12 11 11 10 9 9 8 7 7 8 8 9 9 10 10 11 12 12 12 12 13 13 15 17 18 20 20 21 24
7 5 7 9 9 10 12 13 16 18 19 22 23 18 13 13 15 16 15 12 11 9 7 5 3 1 1 2 2 1 1 1 4 6 6 6 6 6 5 5 5 4 4 4 5 5 6 6 5 6 7 7 8 9 10 12 12 11 10 10 9 8 8 8 7 7 7 9 11 12 12 11 9 8 8 9 9 11 16 19 19 20 21 21 22 24
11 9 9 8 9 10 10 9 10 10 10 13 15 12 11 13 16 19 18 15 12 10 7 5 3 1 3 3 3 4 3 2 1 3 5 5 5 5 5 5 6 5 5 6 7 7 7 7 7 7 7 7 7 8 9 10 11 10 10 10 9 8 8 8 7 6 6 6 7 8 9 9 8 6 7 9 11 13 18 20 20 22 23 24 25 26
12 10 9 9 10 12 13 13 13 11 12 16 16 16 18 21 22 24 24 21 17 12 8 4 3 3 4 4 4 5 4 4 3 4 5 6 6 7 8 8 8 8 9 9 10 10 10 9 9 10 9 9 8 8 9 10 10 10 11 10 10 9 9 9 9 8 7 6 6 6 5 4 4 4 5 7 8 9 11 12 13 17 20 22 23 24
Wind_Direction
191 199 205 209 212 205 207 214 219 224 231 239 230 220 230 232 226 228 219 179 212 252 247 249 259 259 261 257 216 197 199 203 208 205 201 199 198 195 194 196 196 195 192 188 188 189 190 191 190 191 192 195 197 200 206 210 212 210 209 210 209 205 199 196 196 197 200 201 201 203 203 206 209 211 213 215 217 215 216 220 220 219 218 221 222 222
194 214 214 207 212 210 207 212 218 224 225 231 233 226 231 234 234 235 222 176 192 244 252 254 265 263 258 259 242 207 198 200 204 206 204 203 202 200 198 198 196 194 190 186 187 189 190 190 190 191 193 196 198 201 207 212 213 211 212 213 212 210 208 205 204 204 206 207 207 207 206 207 211 217 219 218 219 218 218 221 220 218 220 221 224 224
202 221 217 207 210 214 214 212 213 220 222 226 234 235 236 232 234 238 225 203 214 242 254 256 263 264 259 258 252 219 203 203 206 210 209 206 205 203 201 199 194 190 188 187 187 188 190 190 190 192 196 199 201 205 209 212 214 214 212 213 215 215 214 213 212 212 213 213 213 213 212 210 210 220 224 221 221 220 221 224 221 219 222 223 225 226
205 219 215 209 208 212 214 207 207 215 221 227 231 231 236 232 231 235 214 206 226 241 255 264 267 267 262 255 249 229 215 209 207 212 214 211 208 206 205 200 194 190 188 189 188 188 189 190 191 193 197 200 199 203 209 213 215 216 214 214 215 217 217 218 219 219 218 217 218 218 219 217 212 218 225 224 225 223 223 226 225 222 224 226 226 227
213 210 206 209 209 208 206 202 206 215 222 226 229 232 235 232 234 241 218 194 222 232 238 256 265 263 256 249 244 226 212 210 207 208 213 214 213 210 208 202 197 194 190 189 190 190 190 190 192 195 199 201 201 203 206 211 214 216 216 215 215 217 218 219 221 221 220 219 219 219 220 222 219 219 225 226 226 225 223 225 226 225 225 226 227 227
222 205 190 205 206 203 207 210 211 214 224 225 225 230 237 240 238 240 240 233 241 234 221 230 252 256 245 243 245 225 202 205 202 203 208 209 209 209 208 204 201 200 195 192 192 192 191 192 192 195 200 203 205 207 208 211 214 216 217 216 216 217 218 219 221 222 221 221 220 219 218 220 220 220 223 225 225 224 224 223 226 229 227 226 228 228
225 207 188 200 200 201 213 220 213 210 224 231 221 223 230 237 240 234 235 239 246 251 230 213 243 263 250 242 239 212 200 203 196 199 206 204 206 207 206 205 202 200 198 195 196 195 194 193 192 195 202 205 206 210 213 213 216 218 218 217 216 216 217 219 220 220 221 222 222 220 219 220 221 222 223 225 225 224 226 224 226 231 231 230 230 231
215 204 188 194 199 203 215 219 209 206 219 231 219 218 221 224 230 231 234 239 248 260 248 216 232 262 260 247 234 211 209 206 194 197 202 202 206 208 207 207 204 202 200 197 196 197 196 196 195 198 206 209 207 209 214 214 216 218 218 218 216 216 216 217 217 219 220 222 221 221 221 223 224 225 226 228 227 226 227 227 227 230 234 232 231 234
201 204 192 192 200 205 213 214 204 202 217 228 214 217 221 218 224 229 236 244 247 254 248 229 229 250 256 246 238 227 222 215 202 198 200 201 204 207 208 209 207 205 203 200 198 198 198 198 199 201 208 211 207 208 215 217 217 218 219 218 217 215 216 216 218 220 221 222 220 221 223 224 226 227 228 231 231 230 229 229 228 229 232 232 231 233
198 208 203 195 202 210 209 209 203 201 214 222 204 203 218 216 223 228 235 243 243 245 245 234 227 239 254 246 233 225 220 220 219 209 200 199 200 204 208 210 209 206 205 204 202 200 199 200 201 202 205 209 209 210 215 217 216 219 220 219 217 217 217 218 219 220 222 223 221 222 224 225 227 228 228 231 233 233 231 230 229 228 230 231 230 232
207 205 210 204 209 217 208 205 208 206 211 214 202 203 214 212 219 226 229 235 241 243 240 233 229 237 256 251 232 227 221 217 224 223 211 200 198 202 207 210 209 206 205 206 205 202 201 201 200 199 200 205 209 209 212 216 218 221 223 221 220 219 219 219 220 221 222 223 222 223 225 226 228 229 229 230 232 234 232 231 230 229 230 230 230 231
212 197 208 209 210 215 210 209 209 203 207 211 202 205 215 209 210 219 215 217 235 241 233 228 228 233 247 248 234 233 228 219 222 228 220 202 197 200 204 209 209 207 205 205 205 203 200 198 197 197 199 201 205 207 210 215 218 221 224 224 222 221 220 220 221 221 221 222 223 224 226 228 229 230 231 231 232 234 235 233 231 231 231 231 231 231
215 207 203 203 207 208 205 206 200 193 202 207 203 205 209 198 193 206 208 211 230 238 234 230 226 228 241 248 242 238 234 227 226 230 230 216 203 199 200 206 208 206 205 204 204 202 199 198 196 196 197 198 203 209 212 214 216 220 224 225 224 222 221 220 220 220 221 223 225 225 226 229 230 231 232 232 232 234 236 236 234 233 232 231 231 231
212 211 203 199 201 201 203 204 193 190 197 200 200 202 203 197 195 204 210 216 232 234 221 219 225 235 246 252 241 234 233 230 223 221 225 223 213 202 199 204 206 205 205 203 203 203 201 199 198 198 199 202 208 213 214 214 215 219 223 225 225 223 221 221 221 222 223 224 225 225 226 228 230 231 232 233 233 234 235 237 236 236 235 233 232 232
206 209 201 197 190 190 200 209 200 191 193 198 202 207 210 212 210 210 212 218 231 229 202 193 208 235 240 248 236 228 222 219 222 225 227 227 222 211 202 202 204 204 205 204 203 203 203 202 201 200 201 206 213 215 215 215 216 218 222 224 225 224 222 222 223 223 224 225 225 225 226 228 229 230 232 233 234 234 235 236 237 237 237 237 236 235
214 219 191 191 194 186 194 205 203 193 191 196 200 210 215 215 220 230 243 244 250 241 202 193 213 238 234 125 108 207 205 206 217 226 225 224 222 214 205 201 203 206 205 204 205 205 204 203 202 202 204 208 214 216 215 216 217 219 222 224 225 225 224 223 223 224 225 227 228 226 227 228 228 230 232 232 233 234 235 237 237 237 238 239 239 237
214 220 176 184 196 193 191 196 198 196 193 188 197 212 212 208 221 236 246 259 268 252 219 205 226 239 254 253 224 213 212 205 210 216 214 215 214 210 206 203 203 206 206 205 206 206 204 202 202 205 207 208 212 217 217 218 219 220 221 224 225 225 225 225 224 224 225 227 229 228 228 229 228 229 231 231 232 233 235 237 237 237 238 238 239 239
211 210 170 179 193 193 191 193 196 202 204 191 195 203 199 205 224 237 236 225 226 240 230 221 231 231 234 247 222 212 217 216 215 218 217 215 209 207 205 204 205 207 207 207 207 206 203 201 203 207 209 211 216 220 220 220 221 221 221 223 225 225 225 225 225 225 225 227 229 229 229 229 228 229 231 231 232 234 234 235 236 236 237 237 237 238
209 209 168 178 191 186 185 194 198 202 209 216 209 193 189 203 209 208 226 226 220 234 237 229 235 235 228 232 213 210 216 217 216 216 218 217 211 208 206 204 207 209 209 208 207 205 202 202 205 209 211 213 218 223 223 221 221 221 222 223 225 226 226 225 226 226 226 227 229 230 229 229 229 230 232 232 233 235 234 233 234 235 235 236 236 237
206 219 179 178 189 180 179 199 202 194 202 216 219 201 199 208 206 200 213 225 227 237 240 232 232 232 230 230 227 221 212 211 213 211 216 220 214 211 208 206 207 208 208 208 206 205 204 205 207 211 213 211 213 218 221 220 221 222 223 223 224 227 228 228 228 227 227 227 228 229 229 230 230 231 233 233 233 235 234 234 234 235 234 235 236 236
214 226 207 175 183 184 185 200 202 191 191 202 208 206 200 197 207 212 211 218 231 240 242 242 239 230 204 222 225 224 215 211 216 213 213 219 219 216 213 210 205 203 206 207 207 206 206 206 207 210 213 210 207 210 213 215 220 221 221 224 226 226 227 228 228 228 229 229 228 229 229 230 231 231 232 233 233 234 235 235 235 236 236 236 236 236
222 220 212 183 179 193 198 195 200 201 193 194 201 201 197 195 202 208 206 211 224 238 243 249 254 249 93 131 203 211 216 223 228 225 217 216 221 221 217 213 206 203 207 208 208 208 207 207 207 207 209 207 204 205 208 212 216 217 220 223 225 226 227 228 228 228 229 230 230 230 230 231 232 231 231 231 232 233 235 236 236 236 236 237 237 236
290 231 216 204 189 203 205 189 197 207 199 197 205 202 198 201 204 207 205 200 210 230 241 249 260 264 101 122 184 208 231 239 232 226 223 220 218 217 220 218 208 204 208 209 209 209 208 206 207 207 206 206 206 205 206 207 211 217 221 222 223 225 227 227 228 229 229 230 230 231 231 232 232 232 231 230 231 232 233 235 236 236 236 236 236 236
271 228 217 217 202 205 206 186 195 211 206 204 209 206 205 207 206 213 220 212 213 222 224 232 245 236 131 156 223 236 233 235 227 219 223 226 222 218 222 210 195 199 205 208 207 205 206 206 205 207 206 205 207 207 206 205 207 214 219 220 222 226 228 228 228 229 231 231 231 231 232 232 232 233 232 231 232 232 232 234 236 236 236 235 236 237
222 211 207 215 201 188 193 188 196 209 211 214 211 205 210 211 207 213 223 229 232 224 219 225 238 219 132 163 206 208 212 223 224 213 212 223 231 237 241 194 186 206 210 208 205 201 202 203 205 209 209 208 209 209 209 209 207 209 214 218 222 225 226 227 226 228 231 233 233 233 233 233 232 232 233 232 232 232 232 233 235 237 237 236 236 237
250 215 205 212 208 198 195 189 196 206 204 211 215 208 209 209 208 211 218 222 224 223 223 228 235 194 126 165 207 203 203 215 216 211 206 216 229 236 233 203 206 226 220 207 201 202 204 205 212 218 218 215 212 210 214 216 212 208 210 216 219 219 221 224 225 226 230 233 234 234 235 235 234 233 233 232 232 232 232 232 234 236 237 237 236 237
250 214 218 232 233 224 209 106 9 283 202 199 208 211 209 208 209 212 217 219 216 221 229 231 234 225 170 170 193 187 183 194 205 221 217 218 261 277 238 212 223 227 218 204 199 206 213 215 222 229 229 225 218 213 216 220 218 213 210 213 215 212 214 221 224 226 229 232 234 235 236 236 236 235 235 235 234 233 233 233 234 235 237 237 237 236
238 196 215 253 291 330 347 9 9 348 208 199 204 208 209 210 212 214 220 221 213 221 231 221 220 230 220 183 178 178 183 199 231 253 246 327 329 324 324 289 252 220 205 214 214 215 226 232 235 236 236 233 225 217 216 219 221 221 218 218 216 209 209 217 223 226 228 231 233 235 238 238 238 237 237 237 237 236 235 236 236 236 237 238 238 237
265 204 188 239 267 287 302 315 344 343 240 219 211 207 208 213 216 220 225 225 222 229 239 222 215 226 230 223 216 213 218 233 252 273 292 308 308 309 320 318 292 235 197 220 238 244 252 252 250 246 243 239 232 225 221 218 219 223 225 224 221 214 209 214 222 226 228 230 234 236 238 240 239 239 238 238 238 238 237 237 238 238 238 239 240 239
306 259 91 282 277 263 246 254 273 263 238 234 232 223 218 221 225 228 232 233 234 237 241 240 237 235 233 236 243 246 248 256 265 275 285 291 294 297 302 302 289 264 243 243 255 291 301 291 277 262 249 244 239 233 228 223 221 223 225 225 225 221 214 213 221 226 228 231 235 236 237 239 240 240 239 239 239 239 239 239 239 240 240 240 241 241
324 24 37 311 277 236 226 229 228 236 242 242 241 236 231 230 229 229 232 235 240 243 244 244 247 246 239 242 254 256 255 257 261 266 273 282 288 289 287 282 274 273 285 288 276 290 301 298 285 270 260 256 250 240 234 231 229 227 224 223 227 228 221 216 220 226 229 232 234 234 236 238 240 240 240 240 240 240 240 240 240 241 241 242 242 242
319 329 340 288 253 216 195 207 222 240 257 252 241 234 230 229 227 226 226 228 231 238 243 245 246 247 243 244 253 255 254 256 261 264 267 272 275 277 277 276 274 277 286 291 286 286 292 290 283 277 275 273 264 250 241 236 232 230 227 225 227 227 222 218 221 228 232 233 233 234 236 238 239 240 241 241 241 241 241 241 241 242 242 243 243 243
309 310 304 263 245 210 164 194 235 251 254 249 237 227 225 225 226 227 226 227 228 231 238 242 242 246 246 244 245 245 247 254 259 261 264 266 268 269 269 269 272 276 281 284 283 282 284 283 280 280 279 276 270 260 251 241 234 233 232 228 223 220 219 221 226 230 233 233 234 236 238 239 239 240 241 242 242 242 242 242 242 243 243 244 244 244
285 282 280 284 257 225 169 175 258 239 234 239 221 215 221 223 224 226 227 226 223 225 237 247 251 254 250 242 242 247 252 258 261 261 262 262 263 265 265 266 269 273 275 277 277 278 280 279 277 278 277 276 276 267 255 245 238 235 234 230 225 222 222 225 228 231 233 235 236 238 239 240 241 241 242 242 242 242 242 243 244 244 244 245 245 245
269 254 258 268 255 251 256 238 230 226 220 126 85 127 214 229 230 234 239 237 231 229 235 243 247 250 251 253 257 265 270 268 267 265 262 263 265 267 268 268 270 272 274 274 274 274 275 274 273 274 274 277 280 270 255 247 237 231 230 230 228 226 226 226 228 230 233 235 237 238 239 240 241 241 241 242 242 242 242 244 245 245 245 245 246 247
249 251 255 251 243 252 253 225 218 222 33 56 170 137 144 189 206 229 240 238 238 240 241 246 250 249 250 253 254 261 267 267 266 265 263 264 265 264 266 268 269 271 270 266 265 266 268 268 269 270 272 277 279 270 255 245 233 223 224 228 229 228 227 228 228 230 231 234 235 236 237 238 239 239 239 239 240 241 242 244 245 246 246 245 246 247
233 243 245 240 238 238 239 236 238 274 301 243 206 128 104 142 132 246 245 228 219 237 272 287 272 265 266 263 261 266 271 268 265 264 264 264 259 255 259 263 261 261 261 259 261 263 265 266 266 268 272 275 273 264 250 238 226 218 218 224 228 228 227 228 229 230 231 232 234 236 236 237 238 239 239 239 240 242 244 245 247 247 247 246 246 246
218 231 234 231 231 231 241 247 242 251 259 232 190 125 93 77 62 23 271 219 120 76 29 340 289 286 286 285 287 297 298 274 260 261 265 264 254 247 249 251 251 255 258 260 262 264 266 266 266 268 271 269 263 255 241 230 221 215 215 220 225 227 227 228 229 230 231 232 234 236 237 238 240 241 241 242 243 245 246 247 248 248 248 248 247 247
210 219 229 236 237 228 234 239 232 238 248 158 141 126 111 99 100 148 240 228 112 69 33 337 307 305 304 311 309 303 282 253 248 266 279 269 248 232 233 237 244 251 254 258 261 262 264 266 264 262 258 252 246 238 227 218 212 211 214 220 225 226 226 228 229 230 232 234 235 237 238 240 242 242 243 243 245 245 246 247 248 249 250 250 250 250
207 210 216 228 232 226 232 239 237 242 243 149 131 120 101 77 141 212 228 208 92 52 21 346 319 311 313 319 310 276 248 245 260 319 330 315 258 217 229 235 240 245 249 255 257 255 255 255 247 238 234 232 229 218 207 201 200 205 214 221 225 225 225 227 229 230 233 235 237 239 241 242 242 243 243 244 245 246 248 248 249 249 249 250 251 250
202 206 210 220 225 224 231 238 240 246 253 243 210 156 92 32 247 229 227 131 73 11 360 336 311 313 313 307 299 276 262 270 289 314 326 326 306 258 249 245 245 245 244 247 245 238 237 235 225 219 219 218 213 203 193 188 191 200 210 217 223 225 226 227 230 232 234 236 238 240 242 243 244 245 245 246 247 248 249 248 247 247 248 249 249 249
199 205 210 218 224 222 223 233 243 242 237 252 242 230 245 271 240 211 142 112 74 336 346 292 287 307 308 296 291 287 285 286 289 295 301 303 295 270 254 248 244 240 241 246 238 218 211 217 211 206 206 204 199 193 187 183 185 192 200 207 215 221 223 226 230 232 234 236 238 239 240 242 243 244 245 246 248 249 249 249 248 248 249 250 249 250
201 213 215 211 215 224 225 227 233 225 178 351 280 232 227 256 299 358 343 261 356 348 341 319 300 310 303 293 290 290 291 290 285 284 288 291 288 263 245 234 223 221 227 243 247 206 207 210 196 189 190 190 186 182 176 176 179 183 187 191 195 203 212 221 229 232 234 237 238 239 239 240 242 244 246 248 249 250 251 251 250 250 251 250 249 249
206 217 227 213 205 218 219 211 213 308 349 352 335 280 269 307 332 342 325 307 337 347 334 324 320 317 304 294 292 294 295 291 284 279 278 275 268 251 243 232 222 227 218 158 60 55 66 117 161 171 177 178 176 172 166 170 178 180 183 188 192 198 207 216 224 228 231 233 235 237 238 239 242 246 250 251 251 251 252 252 251 250 250 250 249 247
176 171 287 264 255 270 257 261 314 316 307 318 326 319 317 319 324 329 318 308 313 323 323 315 311 316 311 295 292 293 291 287 284 277 269 263 249 224 226 221 212 208 168 135 115 95 87 89 101 120 146 161 169 171 167 170 178 181 183 187 191 197 205 210 216 219 221 225 227 230 233 236 240 244 248 249 250 251 252 253 251 248 246 246 247 246
210 316 325 290 290 299 285 276 283 286 288 302 319 321 319 316 313 317 315 307 305 309 309 304 302 306 301 293 294 295 288 283 278 268 259 251 236 221 210 199 194 188 168 149 130 113 104 106 105 101 113 135 154 165 166 168 174 177 180 180 183 190 195 199 205 208 210 213 215 218 222 225 230 236 241 243 244 246 249 249 246 244 243 243 246 247
244 231 229 256 274 282 276 272 279 284 292 303 308 311 315 312 309 309 307 303 299 293 293 301 302 294 286 281 290 295 290 278 264 254 247 236 226 216 202 186 182 181 170 153 133 122 119 116 110 103 103 112 129 145 153 157 163 168 169 167 170 177 181 182 188 194 198 201 205 209 212 212 215 220 224 228 230 232 239 243 242 243 245 245 247 249
252 227 233 246 252 254 258 274 286 289 291 294 293 294 300 300 300 301 298 295 290 282 282 292 289 278 272 259 258 300 305 271 246 235 229 223 218 213 199 180 173 180 178 153 129 126 129 126 118 109 104 103 113 128 138 144 148 153 155 152 152 157 161 160 157 158 166 176 184 190 194 198 205 209 210 214 220 226 234 240 241 242 245 247 249 250
262 270 265 259 261 261 260 267 276 278 278 274 271 275 285 292 299 302 291 277 269 264 266 270 265 244 171 192 177 131 104 228 231 223 213 207 205 204 193 172 161 164 161 140 128 126 125 122 118 112 104 101 107 118 129 136 139 141 144 147 148 148 151 154 152 149 161 178 187 190 191 192 196 198 200 204 210 218 226 229 230 234 238 239 242 246
256 257 255 255 260 258 255 259 264 268 272 265 266 285 305 301 303 306 297 283 268 252 240 243 239 147 111 141 152 143 128 100 135 200 180 165 168 168 157 151 146 137 128 119 113 113 114 112 110 106 101 99 101 106 113 121 127 132 136 143 148 151 156 160 156 152 156 169 182 191 196 201 204 204 204 204 206 216 225 229 232 237 240 242 243 245
249 252 253 257 262 261 263 267 266 270 282 280 281 298 302 296 297 300 298 295 285 261 231 216 199 140 112 116 133 139 129 104 104 137 135 127 130 129 127 130 127 117 113 111 108 109 109 107 105 101 97 94 93 94 96 100 103 111 118 123 125 129 138 145 145 146 149 152 162 172 171 174 191 206 217 224 227 233 239 241 242 245 250 254 255 257
Height
1477 1479 1477 1476 1472 1471 1472 1471 1472 1471 1471 1473 1473 1476 1478 1477 1475 1470 1467 1466 1468 1477 1476 1471 1472 1470 1469 1466 1465 1469 1472 1473 1476 1477 1479 1482 1484 1486 1488 1491 1493 1496 1499 1501 1504 1507 1510 1513 1515 1518 1521 1523 1526 1528 1530 1532 1535 1537 1539 1542 1544 1546 1549 1551 1552 1554 1555 1558 1559 1561 1562 1564 1565 1566 1567 1569 1570 1572 1573 1574 1575 1576 1578 1579 1580 1581
1475 1475 1469 1467 1466 1466 1468 1469 1471 1471 1472 1475 1475 1476 1476 1475 1473 1466 1466 1467 1467 1476 1476 1469 1472 1471 1468 1466 1462 1465 1469 1471 1472 1473 1476 1478 1480 1482 1484 1487 1491 1494 1498 1500 1502 1505 1507 1510 1513 1515 1518 1520 1522 1525 1527 1529 1532 1535 1537 1539 1542 1544 1546 1548 1550 1551 1553 1554 1556 1558 1560 1562 1564 1565 1566 1568 1569 1571 1572 1573 1574 1575 1576 1577 1578 1579
1473 1468 1462 1461 1462 1463 1466 1467 1471 1472 1474 1477 1475 1476 1475 1471 1470 1467 1465 1467 1468 1475 1476 1471 1473 1471 1464 1462 1459 1460 1465 1467 1468 1470 1472 1474 1477 1479 1481 1484 1487 1491 1495 1497 1499 1501 1504 1507 1510 1512 1514 1517 1520 1522 1524 1527 1529 1532 1534 1537 1539 1541 1543 1546 1547 1549 1551 1552 1554 1557 1558 1561 1563 1564 1565 1566 1568 1569 1570 1571 1573 1574 1575 1576 1577 1578
1468 1461 1456 1457 1459 1463 1466 1467 1471 1473 1474 1475 1473 1475 1474 1468 1471 1473 1467 1467 1468 1470 1473 1472 1472 1469 1462 1460 1458 1457 1460 1462 1465 1467 1469 1471 1474 1476 1479 1482 1485 1487 1491 1494 1496 1498 1501 1504 1506 1508 1511 1513 1517 1519 1522 1524 1526 1529 1531 1534 1536 1538 1541 1543 1545 1547 1549 1551 1553 1555 1557 1559 1561 1563 1563 1565 1566 1567 1569 1570 1571 1572 1573 1575 1576 1577
1457 1451 1450 1454 1457 1461 1467 1469 1471 1473 1474 1472 1470 1471 1471 1467 1469 1471 1467 1468 1469 1468 1468 1472 1478 1472 1463 1463 1458 1454 1456 1459 1461 1464 1466 1469 1471 1474 1477 1479 1482 1484 1486 1490 1493 1495 1497 1500 1502 1505 1508 1510 1513 1516 1518 1520 1523 1525 1528 1531 1533 1536 1538 1541 1543 1545 1547 1550 1552 1553 1556 1557 1559 1561 1561 1562 1564 1565 1566 1568 1569 1570 1571 1573 1574 1575
1450 1446 1448 1453 1456 1460 1466 1467 1466 1470 1472 1470 1467 1465 1467 1468 1467 1468 1469 1471 1477 1477 1466 1469 1486 1478 1459 1459 1456 1450 1455 1458 1458 1460 1463 1466 1468 1471 1474 1476 1479 1481 1484 1486 1489 1492 1494 1496 1500 1502 1504 1507 1509 1512 1515 1517 1520 1523 1525 1528 1531 1533 1536 1538 1540 1543 1545 1547 1549 1551 1552 1554 1556 1557 1558 1559 1561 1563 1564 1566 1567 1568 1570 1571 1572 1573
1444 1442 1446 1452 1455 1460 1465 1463 1461 1464 1470 1469 1461 1460 1464 1466 1468 1469 1472 1475 1481 1479 1463 1463 1484 1482 1462 1456 1452 1451 1457 1459 1457 1458 1459 1463 1466 1468 1470 1473 1475 1478 1480 1483 1486 1489 1491 1493 1496 1498 1500 1503 1505 1509 1512 1515 1517 1520 1523 1525 1528 1531 1533 1536 1538 1540 1543 1545 1547 1548 1550 1552 1553 1554 1556 1557 1559 1561 1563 1565 1566 1567 1568 1569 1571 1572
1439 1442 1447 1451 1454 1459 1461 1459 1456 1459 1468 1466 1455 1456 1462 1465 1469 1470 1472 1476 1474 1471 1465 1462 1474 1482 1471 1458 1449 1450 1458 1459 1457 1457 1457 1459 1462 1464 1467 1469 1471 1474 1476 1479 1482 1485 1488 1489 1491 1493 1495 1498 1502 1506 1509 1512 1514 1517 1520 1522 1525 1528 1531 1533 1536 1537 1540 1542 1544 1546 1548 1550 1551 1553 1554 1556 1558 1560 1561 1563 1564 1566 1567 1568 1569 1570
1434 1441 1444 1448 1453 1454 1453 1451 1451 1455 1463 1459 1452 1456 1461 1463 1467 1467 1470 1473 1469 1472 1475 1467 1468 1480 1473 1455 1448 1449 1456 1459 1457 1455 1454 1455 1458 1461 1463 1466 1467 1470 1472 1474 1477 1479 1482 1485 1487 1489 1492 1496 1500 1503 1505 1508 1511 1514 1517 1520 1523 1525 1528 1530 1533 1535 1537 1540 1542 1544 1546 1547 1549 1551 1553 1555 1556 1558 1559 1561 1563 1564 1565 1566 1567 1568
1431 1434 1438 1443 1449 1447 1445 1445 1445 1452 1457 1453 1452 1458 1460 1462 1464 1466 1469 1470 1471 1477 1478 1467 1465 1475 1469 1452 1448 1450 1453 1457 1453 1449 1448 1449 1454 1457 1459 1461 1463 1466 1469 1470 1473 1475 1477 1480 1484 1487 1490 1493 1497 1499 1502 1505 1509 1511 1514 1517 1520 1522 1525 1527 1530 1532 1534 1537 1539 1541 1543 1545 1547 1549 1551 1553 1554 1555 1557 1559 1561 1562 1563 1564 1565 1566
1426 1430 1434 1437 1441 1440 1440 1443 1442 1446 1450 1450 1454 1461 1463 1463 1463 1465 1466 1468 1477 1478 1470 1463 1461 1469 1468 1451 1443 1445 1445 1446 1446 1443 1442 1443 1448 1452 1454 1457 1459 1462 1464 1466 1469 1471 1474 1477 1481 1485 1487 1490 1493 1496 1499 1502 1505 1508 1510 1514 1516 1519 1522 1524 1527 1529 1532 1534 1536 1538 1540 1542 1544 1546 1548 1550 1551 1552 1554 1556 1558 1559 1561 1562 1563 1564
1427 1433 1434 1431 1434 1435 1438 1443 1441 1443 1447 1450 1456 1462 1466 1467 1466 1470 1469 1472 1483 1477 1462 1456 1455 1465 1467 1447 1436 1435 1431 1432 1437 1438 1437 1438 1443 1446 1449 1453 1455 1457 1460 1462 1466 1468 1471 1474 1477 1480 1483 1486 1489 1492 1495 1498 1501 1504 1507 1510 1513 1516 1518 1521 1524 1526 1528 1531 1533 1535 1538 1539 1542 1544 1545 1547 1549 1550 1551 1553 1556 1557 1558 1560 1561 1562
1428 1429 1429 1429 1431 1431 1439 1444 1444 1445 1447 1451 1456 1461 1470 1474 1478 1485 1481 1476 1478 1468 1455 1451 1453 1459 1452 1435 1431 1431 1426 1425 1428 1430 1431 1432 1437 1441 1445 1448 1450 1453 1456 1458 1462 1464 1467 1469 1471 1474 1477 1481 1484 1487 1490 1493 1496 1499 1502 1506 1509 1512 1515 1518 1520 1522 1525 1527 1530 1532 1534 1536 1539 1541 1542 1544 1546 1548 1549 1551 1553 1554 1556 1557 1558 1559
1430 1428 1426 1429 1429 1427 1433 1440 1445 1447 1447 1450 1453 1458 1467 1473 1484 1493 1483 1474 1472 1461 1450 1448 1453 1455 1443 1430 1425 1424 1423 1423 1422 1425 1428 1429 1432 1437 1440 1443 1446 1449 1452 1454 1457 1460 1462 1463 1465 1468 1471 1474 1477 1481 1485 1488 1491 1494 1497 1501 1504 1508 1511 1514 1516 1519 1521 1523 1526 1529 1531 1533 1535 1537 1539 1541 1543 1545 1546 1548 1549 1551 1553 1554 1556 1557
1430 1430 1420 1422 1424 1422 1426 1429 1434 1439 1443 1446 1444 1449 1457 1458 1469 1479 1472 1468 1466 1455 1449 1452 1456 1453 1443 1430 1417 1413 1416 1418 1421 1424 1426 1428 1430 1433 1437 1440 1443 1445 1447 1450 1452 1454 1456 1458 1460 1463 1466 1469 1472 1475 1480 1483 1486 1489 1492 1495 1499 1503 1506 1509 1512 1515 1517 1520 1522 1525 1527 1530 1532 1533 1535 1537 1539 1541 1543 1544 1546 1548 1550 1551 1553 1555
1421 1418 1407 1411 1415 1415 1422 1423 1423 1432 1442 1442 1438 1445 1450 1445 1449 1457 1454 1450 1451 1450 1450 1452 1449 1437 1428 1421 1413 1412 1413 1414 1419 1420 1421 1425 1426 1428 1433 1435 1438 1440 1442 1445 1447 1449 1451 1454 1456 1459 1462 1464 1467 1471 1474 1478 1481 1483 1487 1490 1494 1498 1501 1505 1508 1511 1513 1516 1519 1521 1523 1526 1528 1530 1532 1534 1536 1537 1539 1541 1543 1545 1547 1548 1550 1552
1416 1413 1401 1406 1412 1411 1417 1419 1419 1428 1436 1437 1439 1442 1438 1434 1440 1450 1452 1446 1450 1459 1451 1443 1442 1433 1427 1422 1413 1414 1417 1415 1416 1417 1417 1420 1422 1425 1428 1430 1433 1436 1437 1440 1441 1443 1446 1450 1453 1454 1457 1460 1462 1465 1468 1471 1475 1478 1482 1485 1489 1493 1497 1500 1503 1506 1510 1512 1515 1517 1520 1522 1524 1526 1528 1530 1532 1534 1536 1538 1540 1542 1543 1545 1547 1548
1406 1410 1400 1404 1413 1410 1410 1415 1417 1418 1421 1429 1437 1434 1430 1434 1438 1445 1455 1454 1458 1465 1449 1435 1438 1437 1437 1430 1413 1411 1417 1416 1415 1414 1414 1416 1419 1422 1424 1426 1429 1430 1433 1435 1436 1440 1443 1446 1448 1449 1452 1455 1457 1460 1462 1466 1470 1474 1478 1481 1485 1488 1491 1495 1498 1502 1505 1508 1510 1513 1515 1518 1520 1522 1524 1526 1529 1531 1533 1535 1536 1538 1540 1541 1543 1545
1397 1407 1405 1402 1408 1408 1406 1415 1420 1416 1414 1419 1424 1421 1427 1442 1445 1446 1456 1457 1457 1461 1448 1434 1432 1430 1431 1426 1414 1412 1415 1413 1412 1412 1413 1413 1415 1417 1419 1423 1425 1426 1430 1432 1433 1437 1439 1440 1442 1444 1446 1449 1451 1454 1457 1462 1466 1470 1474 1477 1481 1484 1487 1491 1494 1497 1501 1503 1506 1508 1511 1513 1516 1518 1520 1523 1525 1527 1529 1531 1533 1535 1536 1538 1539 1541
1397 1406 1408 1401 1400 1404 1408 1413 1418 1418 1416 1416 1418 1418 1421 1431 1437 1440 1445 1444 1447 1451 1445 1436 1431 1425 1419 1413 1410 1412 1410 1408 1409 1409 1410 1410 1409 1412 1415 1418 1421 1423 1426 1427 1430 1432 1433 1435 1437 1439 1442 1445 1448 1451 1455 1459 1462 1465 1469 1473 1477 1480 1483 1488 1490 1493 1496 1498 1501 1504 1506 1509 1511 1514 1517 1519 1522 1523 1525 1527 1529 1531 1533 1534 1536 1537
1400 1405 1408 1402 1397 1402 1408 1407 1407 1412 1415 1419 1422 1422 1421 1423 1426 1430 1433 1431 1435 1442 1441 1439 1435 1421 1407 1401 1403 1406 1405 1405 1405 1406 1407 1406 1405 1408 1411 1413 1416 1419 1421 1423 1425 1427 1428 1431 1434 1437 1440 1443 1448 1451 1453 1457 1459 1462 1466 1468 1472 1476 1479 1482 1485 1488 1491 1493 1496 1499 1501 1504 1507 1510 1513 1515 1517 1519 1521 1523 1525 1527 1529 1531 1532 1533
1404 1405 1405 1403 1400 1402 1402 1397 1397 1401 1405 1412 1417 1418 1419 1422 1425 1435 1439 1430 1426 1432 1433 1436 1437 1420 1400 1396 1398 1400 1401 1401 1400 1402 1403 1402 1404 1406 1407 1410 1413 1415 1417 1419 1421 1424 1426 1429 1432 1435 1438 1442 1445 1447 1449 1452 1455 1458 1461 1463 1467 1471 1474 1477 1480 1483 1485 1488 1491 1494 1496 1500 1502 1506 1509 1511 1513 1515 1517 1519 1521 1523 1525 1527 1528 1529
1407 1404 1403 1402 1400 1399 1395 1391 1393 1396 1396 1404 1409 1409 1412 1416 1419 1432 1439 1430 1426 1428 1424 1427 1435 1420 1399 1395 1398 1397 1398 1397 1396 1398 1399 1400 1402 1404 1406 1409 1412 1414 1416 1418 1420 1423 1425 1428 1431 1434 1436 1438 1440 1442 1444 1447 1450 1452 1455 1459 1462 1465 1468 1471 1475 1478 1481 1483 1486 1489 1492 1495 1498 1501 1504 1506 1508 1510 1512 1514 1516 1519 1520 1522 1524 1525
1410 1407 1408 1405 1397 1393 1390 1389 1391 1392 1394 1401 1403 1401 1405 1408 1410 1417 1420 1419 1422 1426 1423 1429 1437 1421 1400 1396 1397 1396 1395 1394 1393 1395 1397 1398 1400 1402 1406 1408 1411 1413 1415 1417 1419 1421 1423 1426 1428 1429 1431 1433 1435 1437 1440 1442 1444 1447 1450 1454 1457 1458 1462 1466 1470 1473 1475 1478 1481 1484 1487 1490 1493 1496 1498 1501 1503 1505 1508 1511 1512 1514 1516 1518 1520 1521
1411 1408 1409 1412 1411 1410 1407 1403 1401 1396 1394 1397 1396 1396 1399 1401 1405 1410 1411 1413 1420 1420 1418 1427 1433 1416 1399 1397 1397 1395 1395 1394 1393 1393 1396 1398 1400 1402 1405 1408 1410 1412 1412 1414 1416 1418 1420 1422 1423 1424 1426 1428 1430 1433 1436 1438 1440 1443 1445 1448 1450 1453 1457 1461 1465 1467 1470 1473 1476 1479 1482 1485 1488 1490 1493 1496 1498 1501 1504 1507 1508 1509 1511 1513 1515 1517
1412 1406 1405 1409 1414 1416 1415 1410 1405 1397 1393 1395 1394 1393 1395 1397 1402 1408 1411 1417 1424 1421 1415 1420 1421 1409 1401 1402 1400 1397 1397 1396 1395 1394 1395 1398 1400 1403 1405 1407 1409 1409 1410 1412 1413 1415 1417 1418 1420 1421 1422 1425 1427 1429 1432 1434 1436 1439 1441 1443 1446 1449 1453 1456 1460 1462 1465 1468 1471 1474 1476 1479 1482 1485 1488 1491 1494 1497 1500 1502 1504 1505 1506 1508 1511 1513
1412 1407 1405 1408 1408 1407 1407 1406 1400 1393 1392 1395 1396 1394 1394 1395 1397 1403 1409 1414 1417 1420 1417 1414 1412 1410 1406 1405 1403 1399 1398 1398 1397 1395 1395 1397 1400 1402 1405 1406 1407 1408 1409 1410 1411 1413 1414 1415 1417 1418 1419 1421 1423 1426 1428 1430 1433 1436 1438 1439 1443 1447 1449 1451 1454 1457 1460 1463 1465 1468 1470 1473 1477 1480 1483 1486 1488 1492 1494 1497 1499 1500 1502 1504 1506 1508
1413 1411 1409 1411 1411 1408 1407 1406 1402 1398 1395 1394 1395 1395 1394 1395 1395 1400 1405 1405 1406 1416 1419 1410 1409 1414 1410 1404 1403 1401 1398 1399 1397 1395 1395 1398 1400 1402 1403 1405 1406 1406 1407 1408 1410 1411 1412 1413 1415 1416 1417 1419 1421 1423 1425 1427 1430 1432 1433 1436 1439 1443 1446 1447 1449 1452 1455 1458 1460 1462 1464 1468 1472 1475 1478 1481 1484 1487 1489 1491 1494 1495 1497 1500 1501 1503
1416 1413 1410 1411 1412 1410 1407 1406 1404 1404 1403 1400 1398 1398 1397 1397 1397 1399 1401 1400 1401 1411 1414 1407 1408 1414 1410 1403 1401 1399 1397 1397 1396 1394 1395 1397 1400 1401 1402 1404 1405 1405 1406 1407 1408 1409 1411 1412 1413 1414 1416 1417 1419 1420 1421 1423 1426 1427 1430 1432 1434 1438 1441 1443 1445 1447 1450 1452 1454 1456 1459 1463 1467 1470 1474 1476 1479 1481 1484 1486 1489 1491 1493 1494 1496 1499
1420 1415 1414 1415 1414 1411 1409 1407 1406 1406 1407 1406 1403 1402 1401 1400 1400 1400 1401 1399 1399 1403 1404 1403 1407 1409 1405 1400 1398 1395 1395 1396 1396 1396 1396 1396 1398 1399 1401 1403 1403 1403 1404 1405 1406 1407 1409 1410 1411 1412 1414 1414 1415 1416 1418 1420 1421 1423 1425 1428 1430 1433 1436 1439 1441 1442 1445 1447 1449 1452 1455 1459 1462 1465 1468 1471 1473 1476 1479 1481 1484 1486 1488 1489 1491 1494
1423 1420 1419 1418 1416 1413 1408 1407 1407 1407 1408 1409 1406 1403 1402 1403 1403 1403 1404 1402 1402 1404 1402 1402 1408 1407 1400 1395 1395 1394 1395 1396 1397 1399 1399 1398 1398 1398 1399 1401 1401 1401 1402 1403 1405 1406 1407 1408 1409 1410 1411 1411 1412 1413 1414 1416 1417 1419 1422 1424 1426 1428 1432 1435 1437 1438 1440 1443 1445 1449 1452 1455 1458 1461 1463 1465 1468 1471 1474 1477 1479 1481 1483 1485 1487 1489
1425 1424 1420 1419 1420 1414 1407 1408 1409 1406 1408 1410 1407 1403 1402 1403 1403 1402 1402 1402 1403 1406 1406 1406 1409 1407 1399 1394 1395 1395 1395 1396 1398 1399 1400 1400 1400 1399 1398 1398 1398 1399 1400 1401 1403 1404 1405 1406 1406 1407 1407 1408 1409 1409 1410 1411 1413 1415 1417 1419 1421 1425 1429 1432 1433 1434 1436 1439 1442 1445 1448 1451 1454 1456 1458 1461 1463 1466 1469 1472 1474 1476 1478 1480 1482 1484
1429 1428 1422 1421 1423 1414 1407 1410 1409 1410 1417 1413 1401 1397 1398 1399 1399 1399 1398 1398 1399 1401 1405 1405 1403 1400 1395 1394 1396 1397 1397 1397 1397 1397 1399 1400 1399 1399 1398 1397 1397 1397 1398 1400 1401 1401 1402 1403 1404 1404 1404 1405 1406 1406 1406 1408 1409 1410 1412 1416 1420 1423 1426 1428 1429 1431 1433 1436 1439 1441 1444 1448 1450 1452 1454 1456 1459 1462 1465 1467 1469 1471 1473 1475 1478 1480
1431 1432 1426 1424 1425 1418 1411 1412 1413 1418 1421 1407 1388 1386 1390 1392 1395 1397 1396 1395 1394 1394 1395 1395 1394 1392 1392 1393 1395 1396 1396 1395 1395 1396 1397 1398 1398 1398 1397 1397 1397 1397 1398 1399 1399 1399 1399 1400 1401 1402 1401 1402 1403 1403 1403 1404 1405 1406 1409 1413 1416 1419 1421 1423 1425 1428 1430 1433 1436 1438 1441 1444 1446 1448 1450 1453 1456 1459 1461 1463 1465 1467 1469 1472 1473 1475
1432 1432 1429 1426 1427 1422 1414 1416 1425 1424 1410 1394 1385 1386 1388 1388 1390 1392 1393 1390 1389 1390 1391 1392 1392 1391 1391 1392 1392 1393 1393 1393 1393 1394 1394 1395 1396 1396 1396 1396 1397 1397 1397 1397 1397 1396 1396 1397 1398 1399 1399 1399 1399 1400 1400 1400 1401 1404 1406 1408 1411 1413 1416 1418 1421 1423 1426 1429 1431 1434 1437 1439 1441 1444 1447 1450 1453 1455 1456 1459 1461 1463 1465 1467 1469 1470
1433 1432 1430 1426 1426 1424 1420 1421 1423 1413 1397 1390 1390 1389 1389 1390 1391 1394 1396 1392 1389 1389 1389 1390 1390 1388 1388 1390 1390 1391 1391 1390 1390 1391 1392 1393 1394 1394 1395 1394 1395 1395 1395 1395 1394 1393 1393 1394 1395 1395 1396 1396 1396 1396 1397 1397 1399 1401 1402 1404 1406 1409 1412 1415 1418 1420 1422 1424 1426 1429 1431 1434 1437 1440 1443 1445 1448 1449 1452 1454 1455 1457 1460 1462 1464 1466
1433 1432 1430 1429 1426 1423 1423 1418 1410 1403 1400 1397 1393 1390 1391 1392 1393 1396 1397 1391 1387 1388 1390 1391 1390 1388 1387 1387 1388 1388 1388 1388 1389 1389 1389 1390 1391 1391 1391 1392 1392 1392 1392 1392 1391 1390 1391 1392 1392 1392 1392 1393 1393 1393 1394 1394 1396 1397 1399 1401 1403 1405 1409 1412 1414 1416 1417 1419 1422 1425 1428 1431 1434 1436 1439 1441 1443 1445 1446 1448 1450 1452 1455 1457 1459 1460
1431 1431 1429 1430 1426 1421 1422 1419 1413 1413 1410 1398 1391 1391 1392 1393 1393 1395 1396 1392 1388 1389 1392 1392 1392 1391 1389 1389 1389 1389 1389 1393 1393 1388 1385 1386 1387 1387 1388 1388 1389 1389 1389 1388 1388 1388 1388 1389 1389 1390 1390 1390 1390 1390 1390 1391 1393 1395 1396 1397 1399 1402 1405 1407 1409 1412 1414 1417 1420 1422 1425 1428 1430 1433 1435 1437 1438 1440 1442 1444 1446 1448 1450 1452 1454 1455
1428 1429 1428 1430 1426 1421 1423 1423 1418 1415 1405 1392 1389 1391 1393 1394 1393 1394 1400 1398 1390 1390 1393 1392 1393 1392 1391 1391 1392 1391 1394 1397 1394 1386 1382 1382 1383 1384 1386 1386 1386 1387 1386 1386 1386 1386 1387 1387 1387 1387 1387 1387 1387 1387 1388 1389 1391 1392 1394 1395 1397 1400 1402 1404 1406 1409 1412 1415 1417 1420 1422 1424 1427 1429 1430 1432 1434 1436 1438 1440 1442 1444 1446 1447 1449 1451
1425 1427 1428 1430 1427 1422 1422 1419 1413 1407 1398 1390 1391 1393 1393 1393 1392 1400 1409 1402 1390 1392 1395 1393 1394 1394 1393 1393 1393 1392 1394 1394 1389 1384 1383 1383 1383 1384 1385 1385 1385 1385 1384 1384 1384 1385 1385 1385 1385 1385 1384 1384 1385 1385 1386 1387 1389 1391 1392 1393 1395 1397 1399 1401 1404 1407 1410 1412 1415 1417 1419 1421 1423 1424 1426 1429 1431 1433 1436 1437 1439 1441 1442 1443 1445 1447
1423 1424 1425 1426 1423 1421 1423 1419 1412 1403 1395 1391 1392 1392 1393 1394 1397 1404 1407 1397 1391 1394 1395 1394 1395 1395 1394 1394 1393 1392 1391 1389 1387 1386 1386 1386 1385 1385 1385 1384 1383 1383 1383 1383 1383 1383 1383 1383 1383 1382 1382 1383 1383 1384 1385 1386 1388 1389 1391 1392 1394 1396 1398 1400 1403 1405 1407 1410 1412 1415 1417 1418 1420 1422 1424 1427 1428 1430 1432 1434 1436 1438 1439 1441 1442 1444
1420 1420 1421 1423 1420 1417 1416 1416 1415 1407 1395 1391 1392 1391 1393 1399 1401 1399 1396 1393 1393 1394 1393 1394 1395 1394 1394 1394 1393 1392 1391 1389 1388 1388 1387 1387 1386 1385 1384 1384 1383 1383 1382 1382 1382 1382 1382 1382 1381 1381 1381 1382 1382 1383 1384 1385 1386 1388 1389 1391 1393 1395 1398 1399 1401 1403 1405 1407 1410 1412 1414 1416 1418 1419 1422 1424 1426 1427 1429 1431 1433 1435 1437 1438 1440 1440
1421 1420 1418 1416 1416 1416 1415 1415 1419 1412 1399 1393 1394 1393 1394 1398 1396 1392 1391 1392 1393 1392 1392 1393 1393 1393 1394 1394 1392 1392 1391 1389 1388 1388 1388 1388 1387 1385 1384 1383 1383 1382 1382 1382 1382 1382 1382 1381 1380 1380 1380 1381 1381 1382 1383 1384 1385 1386 1388 1389 1391 1393 1395 1397 1399 1401 1403 1405 1408 1410 1412 1414 1415 1417 1419 1421 1423 1425 1427 1428 1430 1432 1433 1435 1436 1437
1424 1424 1418 1409 1408 1413 1413 1409 1409 1406 1400 1398 1399 1397 1396 1397 1394 1393 1394 1392 1392 1393 1393 1392 1392 1393 1393 1392 1392 1391 1389 1388 1388 1387 1388 1388 1386 1385 1384 1384 1383 1383 1382 1382 1383 1383 1382 1382 1381 1380 1380 1380 1381 1382 1382 1383 1384 1385 1386 1387 1389 1391 1393 1395 1398 1400 1402 1404 1405 1407 1410 1412 1413 1415 1416 1418 1420 1422 1423 1425 1427 1428 1430 1431 1433 1434
1421 1424 1425 1419 1414 1414 1410 1404 1402 1402 1401 1402 1402 1400 1399 1399 1398 1398 1397 1395 1394 1395 1393 1392 1393 1392 1391 1391 1391 1390 1388 1387 1387 1387 1387 1387 1386 1386 1385 1385 1385 1385 1384 1383 1383 1383 1383 1383 1382 1381 1381 1380 1381 1381 1381 1382 1383 1384 1385 1386 1388 1390 1392 1394 1396 1398 1400 1402 1403 1405 1407 1409 1411 1412 1414 1416 1418 1419 1420 1422 1424 1426 1428 1429 1429 1430
1419 1424 1428 1426 1421 1417 1412 1406 1405 1405 1403 1402 1404 1404 1403 1402 1400 1399 1399 1397 1397 1396 1395 1394 1393 1391 1391 1390 1389 1388 1387 1387 1387 1387 1387 1386 1386 1386 1385 1385 1386 1386 1385 1384 1383 1383 1384 1384 1384 1383 1382 1381 1381 1381 1381 1382 1383 1384 1385 1386 1388 1390 1392 1394 1395 1397 1398 1400 1401 1403 1405 1407 1408 1410 1411 1413 1415 1417 1418 1420 1422 1424 1425 1426 1427 1427
1418 1423 1426 1425 1423 1421 1415 1408 1405 1405 1403 1403 1405 1405 1404 1403 1402 1400 1400 1399 1398 1398 1396 1394 1392 1391 1390 1389 1388 1387 1387 1386 1386 1387 1386 1386 1387 1386 1386 1386 1386 1386 1386 1384 1383 1383 1384 1385 1385 1384 1383 1382 1382 1381 1382 1382 1383 1384 1386 1387 1388 1390 1391 1393 1395 1396 1398 1399 1401 1402 1403 1405 1407 1408 1410 1411 1413 1415 1417 1419 1420 1421 1422 1423 1424 1424
1419 1421 1423 1421 1420 1419 1416 1411 1408 1408 1407 1405 1404 1404 1404 1404 1402 1401 1401 1400 1399 1398 1396 1394 1392 1391 1389 1388 1387 1387 1386 1387 1387 1387 1386 1387 1387 1387 1387 1386 1385 1386 1386 1384 1383 1384 1385 1386 1386 1385 1384 1383 1382 1382 1382 1383 1384 1385 1386 1387 1389 1390 1391 1392 1394 1396 1397 1399 1400 1401 1403 1404 1405 1406 1408 1410 1412 1414 1415 1416 1417 1418 1419 1420 1421 1422
1420 1421 1419 1417 1416 1415 1412 1410 1410 1408 1405 1402 1402 1402 1403 1403 1402 1402 1401 1400 1399 1397 1396 1394 1393 1390 1388 1387 1387 1386 1386 1387 1387 1387 1387 1387 1387 1387 1387 1386 1385 1386 1386 1384 1384 1384 1385 1386 1386 1386 1386 1385 1384 1384 1384 1384 1385 1386 1386 1388 1389 1390 1391 1392 1393 1395 1396 1397 1398 1399 1400 1402 1403 1404 1406 1408 1410 1411 1412 1412 1413 1414 1415 1417 1418 1417
1418 1417 1415 1417 1417 1412 1407 1407 1408 1407 1403 1399 1400 1401 1402 1403 1402 1402 1401 1400 1399 1397 1396 1394 1393 1390 1387 1387 1386 1386 1386 1387 1387 1388 1387 1386 1386 1387 1387 1387 1386 1386 1385 1385 1384 1384 1385 1386 1387 1387 1387 1386 1386 1386 1385 1385 1386 1386 1387 1388 1389 1389 1391 1391 1392 1393 1394 1395 1396 1397 1398 1399 1401 1402 1403 1405 1407 1408 1408 1409 1411 1412 1412 1413 1414 1415
1414 1413 1412 1413 1412 1407 1404 1404 1406 1406 1403 1400 1401 1402 1402 1401 1402 1401 1400 1400 1399 1397 1395 1394 1392 1390 1388 1386 1386 1387 1387 1386 1387 1387 1387 1386 1386 1386 1387 1387 1386 1386 1386 1386 1386 1386 1386 1387 1387 1388 1388 1388 1388 1388 1387 1386 1386 1387 1388 1388 1389 1390 1391 1391 1391 1392 1393 1394 1395 1396 1397 1398 1399 1400 1402 1403 1404 1406 1407 1408 1409 1410 1410 1410 1411 1412